www.pogodaiklimat.ru

Погода и климат >> Архив погоды >> Россия >> Забайкальский край >> Агинское


АРХИВ ПОГОДЫ в Агинском

Время (UTC), дата Ветер
(напр.,м/с)
 
Видим.   Явления Облачность Т
(С)
Тd
(С)
f
(%)
Тe
(С)
Тes
(С)
Комфортность P
(гПа)
Po
(гПа)
Тmin
(С)
Tmax
(С)
R
(мм)
R24
(мм)
S
(см)
21 19.05 СЗ 3 50 км 4/3 1000 м
[Sc Ac lent]
+4.2 -2.9 60 +1 +1 1012.2 931.5
00 20.05 С 4 50 км 1/0
[Ci fib]
+9.9 -4.3 36 +8 +12 1010.3 931.3 +2.3
03 20.05 С 6-11
{11}
50 км 1/1 1000 м
[Cu hum]
+13.0 -4.1 30 +11 +16 1008.2 930.2
06 20.05 СЗ 8-15
{15}
50 км 1/1 1000 м
[Cu hum]
+14.7 -3.8 28 +13 +15 1006.2 928.7
09 20.05 СЗ 8-13
{15}
50 км 1/1 1000 м
[Cu hum]
+15.5 -4.0 26 +14 +15 1005.4 928.2
12 20.05 СЗ 4
{13}
50 км ясно +12.6 -3.8 32 +11 +11 1006.6 928.5 +15.8
15 20.05 З 3 50 км ясно +6.4 -3.6 49 +4 +4 1009.0 929.1
18 20.05 СЗ 3 50 км ясно +6.2 -4.6 46 +4 +4 1009.3 929.3
21 20.05 ЮЗ 4 50 км ясно +3.5 -4.8 55 -1 -0 1009.8 929.1
00 21.05 СЗ 5 50 км ясно +12.8 -5.0 29 +11 +14 1006.7 928.7 +2.1
03 21.05 СЗ 6-10
{13}
50 км ясно +16.7 -5.8 21 +16 +22 1004.6 927.7
06 21.05 СЗ 6-12
{13}
50 км 1/0
[Ci fib]
+19.6 -7.0 16 +19 +25 1001.5 925.6
09 21.05 СЗ 5-10
{14}
50 км 1/0
[Ci fib]
+21.0 -5.8 16 +20 +23 999.6 924.2
12 21.05 СЗ 2
{12}
50 км ясно +17.7 -3.2 24 +18 +18 1000.6 924.4 +21.2
15 21.05 З 3 50 км ясно +8.0 -1.6 51 +6 +6 1003.4 924.4
18 21.05 ЮЗ 2 50 км 3/0
[Ci fib]
+5.2 -1.7 61 +3 +3 1004.2 924.4
21 21.05 З 1 50 км ясно +2.2 -2.3 72 +1 +1 1005.0 924.3
00 22.05 З 1 50 км 3/0
[Ci fib]
+12.7 -0.9 39 +13 +20 1001.7 924.1 +1.6
03 22.05 З 2 50 км 10/0
[Ci fib]
+23.3 -4.2 16 +21 +34 комфорт 996.6 922.0
06 22.05 ЮЗ 4 50 км 10/0
[Cs]
+25.8 -5.0 13 +23 +31 комфорт 993.8 920.0
09 22.05 С 2 50 км 10/0
[Ac As]
+26.0 -5.6 12 +23 +25 комфорт 992.8 919.1
12 22.05 ЮВ 2 50 км 8/1 1000 м
[Sc Ci fib]
+21.8 -1.7 21 +21 +21 комфорт 993.6 918.9 +27.9
15 22.05 СЗ 2 50 км 4/0
[Ac lent Ci fib]
+10.1 +1.5 55 +9 +9 997.9 919.9
18 22.05 З 3 50 км 9/4 1000 м
[Sc Ac trans]
+9.1 +1.4 59 +7 +7 998.7 920.5
21 22.05 ЮЗ 2 50 км 10/1 1000 м
[Sc Ac trans Ci fib]
+9.5 +1.1 56 +8 +8 1000.1 921.8
00 23.05 СВ 4 50 км 4/0
[Ac trans Ci fib]
+18.7 +1.7 32 +19 +22 997.9 922.1 +8.6
03 23.05 В 2 50 км 10/6 600 м
[Cb cap Ci fib]
+23.2 +0.1 22 +22 +27 комфорт 995.5 921.0
06 23.05 Ю 5 50 км 10/1 1000 м
[Sc Ci fib]
+27.2 -1.5 15 +25 +30 комфорт 991.6 918.3
09 23.05 З 3
{11}
50 км 10/10 600 м
[Cb cap]
+26.1 +0.9 19 +24 +24 комфорт 990.3 916.9
12 23.05 Ю 1
{18}
50 км {гроза, ливн. осадки} 10/10 600 м
[Cb cap]
+18.4 +10.1 58 +20 +20 993.2 917.9 +28.8 0.0
15 23.05 СЗ 3 50 км 3/3 1000 м
[Sc diur, vesp]
+14.4 +10.3 76 +14 +14 994.2 917.8
18 23.05 ЮЗ 2 50 км 3/3 1000 м
[Sc]
+14.3 +3.8 49 +14 +14 998.6 921.7
21 23.05 СЗ 5
{11}
50 км 10/3 1000 м
[Sc As op]
+12.1 +1.3 48 +10 +10 1001.6 923.9
00 24.05 СЗ 6-10
{15}
50 км 10/4 600 м
[Cb cap Ac As]
+10.0 +0.1 50 +7 +7 1005.3 926.7 +10.0
03 24.05 СЗ 6-11
{12}
50 км 10/1 600 м
[Cb cap Ac lent Ci fib]
+14.4 -2.4 31 +13 +16 1004.6 927.2
06 24.05 СЗ 6-10
{12}
50 км 10/0
[Ac lent Ci fib]
+16.9 -5.5 21 +16 +19 1003.3 926.6
09 24.05 СЗ 4
{12}
50 км 10/0
[Ac As]
+16.9 -4.7 22 +17 +18 1003.6 926.9
12 24.05 СЗ 2
{10}
50 км 10/0
[Ac lent Ci fib]
+14.9 -4.8 25 +15 +15 1004.8 927.5 +17.4
15 24.05 З 1 50 км 6/0
[Ci fib]
+6.5 -3.0 51 +6 +6 1007.7 928.0
18 24.05 З 1 50 км 8/0
[Ci fib]
+5.1 -3.3 55 +4 +4 1009.9 929.6
21 24.05 ЮЗ 1 50 км 10/0
[Ac lent Ci fib]
+2.0 -3.7 66 +1 +1 1013.3 931.9
00 25.05 З 1 50 км 10/0
[Ac lent Ci fib]
+12.2 -1.6 38 +13 +17 1011.5 933.0 +1.4
03 25.05 С 2 50 км 10/6 1000 м
[Cu hum Ac lent Ci fib]
+15.3 -2.9 28 +15 +19 1011.2 933.5
06 25.05 СЗ 4
{10}
50 км 10/6 1000 м
[Cu med, cong Ac lent Ci fib]
+16.8 -8.6 17 +16 +18 1010.7 933.4
09 25.05 СЗ 4-10
{12}
50 км 8/4 1000 м
[Cu med, cong Ci fib]
+18.0 -9.5 14 +18 +20 1010.5 933.5
12 25.05 СЗ 2
{10}
50 км 4/3 600 м
[Cb calv Ci]
+14.2 -8.5 20 +14 +14 1013.4 935.2 +18.6
15 25.05 З 1 50 км ясно +3.4 -7.1 46 +3 +3 1019.0 937.4
18 25.05 ЮЗ 1 50 км ясно -0.9 -7.1 63 -3 -3 1022.0 939.0
21 25.05 З 2 50 км 1/0
[Ac lent]
-1.6 -7.4 65 -5 -5 1023.9 940.6
00 26.05 Ю 1 50 км 5/0
[Ac cuf Ci fib]
+9.8 -5.6 33 +10 +16 1021.6 941.6 -3.3
03 26.05 С 4
{10}
50 км 3/3 1000 м
[Cu med, cong Ac cuf]
+15.9 -7.0 20 +15 +23 1019.4 941.2
06 26.05 СЗ 4
{10}
50 км 10/6 600 м
[Cb cap Ci ing]
+16.7 -10.4 15 +16 +20 1017.6 939.7
09 26.05 СЗ 5
{13}
50 км 10/3 1000 м
[Cu med, cong Ac cuf Ci ing]
+17.2 -11.2 13 +17 +18 1016.6 938.9
12 26.05 С 3
{12}
50 км 1/1 1000 м
[Sc diur, vesp]
+14.4 -13.4 13 +14 +14 1018.4 939.9 +17.3
15 26.05 З 2 50 км 1/0
[Ac trans]
+3.7 -7.7 43 +2 +2 1022.5 940.8

 

Местоположение метеостанции Агинское (Забайкальский край, Россия): широта 51.10 долгота 114.50 высота над уровнем моря 681 м.

В архиве по умолчанию представлена погода в Агинском за последнюю неделю. Архивные данные за месяц целиком и за предыдущие месяцы, начиная с января 2011 года, Вы можете получить, выбрав интересующий диапазон дат из раскрывающегося списка и нажав кнопку "Ввод!".


*Определитесь, кто Вы:
робот инопланетянин человек

Внимание! Время в таблицах - всемирное. Для получения местного времени необходимо прибавить поправку, которая равна 9 ч.

Смотрите также архив погоды в соседних городах и на ближайших метеорологических станциях:

Погода в Могойтуе (Забайкальский край, Россия) (38 км)
Погода в Курорт-Дарасуне (Забайкальский край, Россия) (57 км)
Погода в Карымской (Забайкальский край, Россия) (61 км)
Погода в Оловянной (Забайкальский край, Россия) (72 км)
Погода в Нижнем Цасучее (Забайкальский край, Россия) (78 км)
Погода в Дульдурге (Забайкальский край, Россия) (84 км)
Погода в Бырке (Забайкальский край, Россия) (111 км)
Погода в Акше (Забайкальский край, Россия) (130 км)
Погода в Чите (Забайкальский край, Россия) (133 км)
Погода в Шилке (Забайкальский край, Россия) (135 км)

Пояснения к столбцам:

Ветер - указаны скорость ветра в м/с - средняя за 10 мин, порывы в срок и между сроками (в фигурных скобках) и направление, откуда дует ветер: С - северный, СВ - северо-восточный, В - восточный, ЮВ - юго-восточный, Ю - южный, ЮЗ - юго-западный, З - западный, СЗ - северо-западный.
Видимость - горизонтальная дальность видимости в метрах или километрах. При видимости от 1 до 10 км при отсутствии осадков обычно наблюдается дымка, при ухудшении видимости до 1 км и менее - туман. В сухую погоду видимость может ухудшаться дымом, пылью или мглою.
Явления - указаны атмосферные явления, наблюдавшиеся в срок или в последний час перед сроком; фигурными скобками обозначены явления, наблюдавшиеся между сроками (за 1-3 часа до срока); квадратными скобками обозначены град или гололедные отложения с указанием их диаметра в мм.
Облачность - указаны через наклонную черту общая и нижняя облачность в баллах и высота нижней границы облаков в метрах; квадратными скобками обозначены формы облаков: Ci - перистые, Cs - перисто-слоистые, Cc - перисто-кучевые, Ac - высококучевые, As - высокослоистые, Sc - слоисто-кучевые, Ns - слоисто-дождевые, Cu - кучевые, Cb - кучево-дождевые. Подробнее классификацию облаков см. в Атласе облаков (PDF).
T - Температура воздуха - температура, измеренная на высоте 2 м над землей.
Td - Температура точки росы - температура, при понижении до которой содержащийся в воздухе водяной пар достигнет насыщения.
f - Относительная влажность воздуха - влажноcть воздуха, измеренная на высоте 2 м над землей.
Te - Эффективная температура - температура, которую ощущает одетый по сезону человек в тени. Характеристика душности погоды. При расчете учитывается влияние влажности воздуха и скорости ветра на теплоощущения человека.
Tes - Эффективная температура на солнце - температура, которую ощущает человек, с поправкой на солнечный нагрев. Характеристика знойности погоды. Зависит от высоты солнца над горизонтом, облачности и скорости ветра. Ночью, в пасмурную погоду, а также при ветре 12 м/с и более поправка равна нулю.
P - Атмосферное давление - приведенное к уровню моря атмосферное давление.
Po - Атмосферное давление - измеренное на уровне метеостанции атмосферное давление.
Tmin - Минимальная температура - минимум температуры воздуха на высоте 2 м над землей.
Tmax - Максимальная температура - максимум температуры воздуха на высоте 2 м над землей.
R - Количество осадков - Количество выпавших осадков за период времени, мм. При наведении курсора мыши на число - период времени, за который выпало указанное количество осадков.
R24 - Количество осадков - Количество выпавших осадков за 24 часа, мм.
S - Снежный покров - Высота снежного покрова, см. При наведении курсора мыши на число - состояние снежного покрова и степень покрытия местности в баллах.